Time,TemperatureF,DewpointF,PressureIn,WindDirection,WindDirectionDegrees,WindSpeedMPH,WindSpeedGustMPH,Humidity,HourlyPrecipIn,Conditions,Clouds,dailyrainin,SoftwareType,DateUTC
2013-04-11 00:01:00,52.5,43.0,30.03,NE,45,0.4,1.3,70,0.00,,,0.00,,2013-04-10 22:01:00,
2013-04-11 07:32:00,52.5,44.4,30.03,SSW,202,0.8,0.8,74,0.00,,,0.00,,2013-04-11 05:32:00,
2013-04-11 07:37:00,52.7,44.2,30.03,SE,135,1.3,4.4,73,0.00,,,0.00,,2013-04-11 05:37:00,
2013-04-11 07:42:00,53.1,44.6,30.03,SSW,202,1.3,2.6,73,0.00,,,0.00,,2013-04-11 05:42:00,
2013-04-11 07:52:00,53.6,43.9,30.03,SSE,157,1.7,1.7,70,0.00,,,0.00,,2013-04-11 05:52:00,
2013-04-11 07:57:00,53.8,43.7,30.06,SE,135,2.6,4.9,69,0.00,,,0.00,,2013-04-11 05:57:00,
2013-04-11 08:02:00,54.0,43.9,30.06,South,180,2.6,3.5,69,0.00,,,0.00,,2013-04-11 06:02:00,
2013-04-11 08:07:00,54.0,43.9,30.06,SSE,157,3.5,3.5,69,0.00,,,0.00,,2013-04-11 06:07:00,
2013-04-11 08:12:00,54.0,44.2,30.06,SSE,157,3.1,4.0,70,0.00,,,0.00,,2013-04-11 06:12:00,
2013-04-11 08:17:00,54.1,44.1,30.06,SW,225,3.5,3.5,69,0.00,,,0.00,,2013-04-11 06:17:00,
2013-04-11 08:22:00,54.3,43.9,30.06,South,180,3.5,4.4,68,0.00,,,0.00,,2013-04-11 06:22:00,
2013-04-11 08:27:00,54.5,44.1,30.06,SSE,157,3.1,4.4,68,0.00,,,0.00,,2013-04-11 06:27:00,
2013-04-11 08:32:00,54.5,44.4,30.06,SSE,157,3.5,7.6,69,0.00,,,0.00,,2013-04-11 06:32:00,
2013-04-11 08:37:00,54.5,44.8,30.06,SSW,202,4.0,5.8,70,0.00,,,0.00,,2013-04-11 06:37:00,
2013-04-11 08:47:00,54.5,45.5,30.06,South,180,4.0,5.8,72,0.00,,,0.00,,2013-04-11 06:47:00,
2013-04-11 08:57:00,54.9,45.9,30.06,SSE,157,3.1,5.8,72,0.00,,,0.00,,2013-04-11 06:57:00,
2013-04-11 09:02:00,55.0,45.3,30.06,SSW,202,4.4,7.6,70,0.00,,,0.00,,2013-04-11 07:02:00,
2013-04-11 09:12:00,55.6,45.1,30.06,SE,135,4.0,6.2,68,0.00,,,0.00,,2013-04-11 07:12:00,
2013-04-11 09:22:00,56.1,45.7,30.06,SE,135,3.5,3.5,68,0.00,,,0.00,,2013-04-11 07:22:00,
2013-04-11 09:27:00,56.3,45.3,30.09,South,180,2.6,4.4,67,0.00,,,0.00,,2013-04-11 07:27:00,
2013-04-11 09:32:00,56.5,45.1,30.06,SSE,157,2.6,3.1,66,0.00,,,0.00,,2013-04-11 07:32:00,
2013-04-11 09:37:00,56.5,43.9,30.06,SW,225,3.1,5.3,63,0.00,,,0.00,,2013-04-11 07:37:00,
2013-04-11 09:42:00,56.7,45.0,30.06,SSW,202,1.3,2.6,65,0.00,,,0.00,,2013-04-11 07:42:00,
2013-04-11 09:47:00,57.0,45.7,30.09,SW,225,2.2,2.6,66,0.00,,,0.00,,2013-04-11 07:47:00,
2013-04-11 09:52:00,57.0,45.7,30.09,South,180,2.6,5.3,66,0.00,,,0.00,,2013-04-11 07:52:00,
2013-04-11 09:57:00,56.8,45.9,30.06,South,180,4.0,4.0,67,0.00,,,0.00,,2013-04-11 07:57:00,
2013-04-11 10:02:00,57.2,45.9,30.09,South,180,2.2,4.4,66,0.00,,,0.00,,2013-04-11 08:02:00,
2013-04-11 10:12:00,57.4,45.7,30.09,East,90,2.2,8.9,65,0.00,,,0.00,,2013-04-11 08:12:00,
2013-04-11 10:17:00,57.6,45.0,30.09,South,180,3.5,5.8,63,0.00,,,0.00,,2013-04-11 08:17:00,
2013-04-11 10:22:00,57.9,45.0,30.09,SSE,157,2.6,3.1,62,0.00,,,0.00,,2013-04-11 08:22:00,
2013-04-11 10:27:00,58.5,45.9,30.06,East,90,0.4,2.2,63,0.00,,,0.00,,2013-04-11 08:27:00,
2013-04-11 10:32:00,58.6,45.1,30.06,South,180,1.7,3.5,61,0.00,,,0.00,,2013-04-11 08:32:00,
2013-04-11 10:37:00,58.5,45.0,30.06,South,180,2.2,3.5,61,0.00,,,0.00,,2013-04-11 08:37:00,
2013-04-11 10:42:00,58.8,44.4,30.06,South,180,2.6,5.8,59,0.00,,,0.00,,2013-04-11 08:42:00,
2013-04-11 10:47:00,58.5,44.6,30.09,SW,225,4.4,6.2,60,0.00,,,0.00,,2013-04-11 08:47:00,
2013-04-11 10:52:00,59.0,45.5,30.09,SSE,157,1.7,1.7,61,0.00,,,0.00,,2013-04-11 08:52:00,
2013-04-11 10:57:00,59.2,44.8,30.09,South,180,2.6,2.6,59,0.00,,,0.00,,2013-04-11 08:57:00,
2013-04-11 11:02:00,59.7,45.3,30.09,SSW,202,1.3,7.6,59,0.00,,,0.00,,2013-04-11 09:02:00,
2013-04-11 11:07:00,59.7,45.7,30.09,SSE,157,3.1,3.1,60,0.00,,,0.00,,2013-04-11 09:07:00,
2013-04-11 11:17:00,59.7,45.3,30.12,SSW,202,3.1,3.5,59,0.00,,,0.00,,2013-04-11 09:17:00,
2013-04-11 11:22:00,60.3,45.9,30.12,WSW,247,2.2,6.2,59,0.00,,,0.00,,2013-04-11 09:22:00,
2013-04-11 11:27:00,60.4,45.5,30.09,South,180,2.6,7.6,58,0.00,,,0.00,,2013-04-11 09:27:00,
2013-04-11 11:32:00,60.6,45.7,30.09,SSW,202,2.2,4.0,58,0.00,,,0.00,,2013-04-11 09:32:00,
2013-04-11 11:37:00,60.8,45.9,30.09,NNW,337,0.8,0.8,58,0.00,,,0.00,,2013-04-11 09:37:00,
2013-04-11 11:42:00,61.5,46.6,30.09,WSW,247,2.2,2.2,58,0.00,,,0.00,,2013-04-11 09:42:00,
2013-04-11 11:47:00,61.5,46.6,30.06,NW,315,2.2,3.1,58,0.00,,,0.00,,2013-04-11 09:47:00,
2013-04-11 11:52:00,61.2,45.7,30.09,East,90,2.6,4.4,57,0.00,,,0.00,,2013-04-11 09:52:00,
2013-04-11 12:02:00,61.3,45.9,30.06,West,270,4.0,8.9,57,0.00,,,0.00,,2013-04-11 10:02:00,
2013-04-11 12:07:00,61.7,46.8,30.06,SSW,202,1.7,2.6,58,0.00,,,0.00,,2013-04-11 10:07:00,
2013-04-11 12:12:00,61.9,46.4,30.09,ESE,112,2.6,6.2,57,0.00,,,0.00,,2013-04-11 10:12:00,
2013-04-11 12:17:00,61.5,46.0,30.09,SE,135,4.0,7.6,57,0.00,,,0.00,,2013-04-11 10:17:00,
2013-04-11 12:22:00,62.4,46.9,30.09,South,180,3.5,4.0,57,0.00,,,0.00,,2013-04-11 10:22:00,
2013-04-11 12:27:00,62.6,46.6,30.06,WSW,247,3.1,3.5,56,0.00,,,0.00,,2013-04-11 10:27:00,
2013-04-11 12:37:00,62.8,46.8,30.09,South,180,3.5,3.5,56,0.00,,,0.00,,2013-04-11 10:37:00,
2013-04-11 12:42:00,62.4,45.0,30.09,SSW,202,4.0,12.0,53,0.00,,,0.00,,2013-04-11 10:42:00,
2013-04-11 12:47:00,61.7,45.3,30.09,SSW,202,5.3,8.9,55,0.00,,,0.00,,2013-04-11 10:47:00,
2013-04-11 12:52:00,62.6,46.0,30.09,East,90,2.2,4.4,55,0.00,,,0.00,,2013-04-11 10:52:00,
2013-04-11 12:57:00,62.8,45.3,30.06,SW,225,3.1,4.0,53,0.00,,,0.00,,2013-04-11 10:57:00,
2013-04-11 13:02:00,62.8,45.3,30.06,SSE,157,2.6,2.6,53,0.00,,,0.00,,2013-04-11 11:02:00,
2013-04-11 13:07:00,62.6,44.6,30.06,SW,225,2.6,4.4,52,0.00,,,0.00,,2013-04-11 11:07:00,
2013-04-11 13:12:00,62.6,44.6,30.09,SW,225,2.6,4.0,52,0.00,,,0.00,,2013-04-11 11:12:00,
2013-04-11 13:22:00,62.6,45.1,30.09,SW,225,3.5,5.3,53,0.00,,,0.00,,2013-04-11 11:22:00,
2013-04-11 13:27:00,63.0,45.5,30.09,SSW,202,3.1,4.9,53,0.00,,,0.00,,2013-04-11 11:27:00,
2013-04-11 13:32:00,63.0,44.4,30.06,SSW,202,5.8,5.8,51,0.00,,,0.00,,2013-04-11 11:32:00,
2013-04-11 13:37:00,63.0,45.0,30.06,ESE,112,3.5,4.9,52,0.00,,,0.00,,2013-04-11 11:37:00,
2013-04-11 13:42:00,63.3,44.8,30.09,WSW,247,4.4,6.2,51,0.00,,,0.00,,2013-04-11 11:42:00,
2013-04-11 13:47:00,63.0,43.9,30.09,SSW,202,6.2,6.2,50,0.00,,,0.00,,2013-04-11 11:47:00,
2013-04-11 13:52:00,62.6,44.1,30.09,South,180,5.8,5.8,51,0.00,,,0.00,,2013-04-11 11:52:00,
2013-04-11 13:57:00,63.0,45.0,30.09,SSE,157,3.1,6.2,52,0.00,,,0.00,,2013-04-11 11:57:00,
2013-04-11 14:02:00,62.6,44.6,30.09,WSW,247,3.1,4.9,52,0.00,,,0.00,,2013-04-11 12:02:00,
2013-04-11 14:07:00,63.0,43.9,30.09,SW,225,4.9,8.0,50,0.00,,,0.00,,2013-04-11 12:07:00,
2013-04-11 14:12:00,62.2,43.7,30.09,South,180,5.3,8.5,51,0.00,,,0.00,,2013-04-11 12:12:00,
2013-04-11 14:22:00,62.6,44.1,30.09,South,180,5.8,6.2,51,0.00,,,0.00,,2013-04-11 12:22:00,
2013-04-11 14:32:00,63.9,45.3,30.09,South,180,2.2,4.0,51,0.00,,,0.00,,2013-04-11 12:32:00,
2013-04-11 14:37:00,64.4,45.9,30.09,NW,315,2.6,6.2,51,0.00,,,0.00,,2013-04-11 12:37:00,
2013-04-11 14:47:00,64.8,43.3,30.09,SW,225,4.0,5.8,46,0.00,,,0.00,,2013-04-11 12:47:00,
2013-04-11 14:52:00,64.6,43.2,30.09,SSW,202,2.6,2.6,46,0.00,,,0.00,,2013-04-11 12:52:00,
2013-04-11 14:57:00,64.8,43.9,30.09,WSW,247,3.5,5.3,47,0.00,,,0.00,,2013-04-11 12:57:00,
2013-04-11 15:02:00,64.0,42.1,30.06,SW,225,5.3,10.2,45,0.00,,,0.00,,2013-04-11 13:02:00,
2013-04-11 15:07:00,63.9,43.2,30.06,West,270,3.1,8.9,47,0.00,,,0.00,,2013-04-11 13:07:00,
2013-04-11 15:12:00,63.9,43.2,30.09,SW,225,4.4,4.9,47,0.00,,,0.00,,2013-04-11 13:12:00,
2013-04-11 15:17:00,64.6,44.4,30.09,SSW,202,2.6,4.4,48,0.00,,,0.00,,2013-04-11 13:17:00,
2013-04-11 15:22:00,64.4,43.0,30.09,SSW,202,3.5,6.7,46,0.00,,,0.00,,2013-04-11 13:22:00,
2013-04-11 15:32:00,64.8,43.9,30.09,SW,225,1.7,2.2,47,0.00,,,0.00,,2013-04-11 13:32:00,
2013-04-11 15:37:00,64.6,43.9,30.09,SW,225,2.6,4.9,47,0.00,,,0.00,,2013-04-11 13:37:00,
2013-04-11 15:42:00,63.7,42.4,30.09,SSW,202,4.9,5.8,46,0.00,,,0.00,,2013-04-11 13:42:00,
2013-04-11 15:52:00,64.4,44.2,30.06,SW,225,3.1,4.4,48,0.00,,,0.00,,2013-04-11 13:52:00,
2013-04-11 15:57:00,64.6,43.9,30.09,SSW,202,3.1,3.1,47,0.00,,,0.00,,2013-04-11 13:57:00,
2013-04-11 16:02:00,63.5,43.3,30.09,SSW,202,4.9,5.3,48,0.00,,,0.00,,2013-04-11 14:02:00,
2013-04-11 16:07:00,63.5,43.9,30.09,SW,225,3.5,4.0,49,0.00,,,0.00,,2013-04-11 14:07:00,
2013-04-11 16:12:00,64.0,44.4,30.06,WSW,247,3.1,5.3,49,0.00,,,0.00,,2013-04-11 14:12:00,
2013-04-11 16:22:00,63.9,44.2,30.06,SSW,202,3.5,5.3,49,0.00,,,0.00,,2013-04-11 14:22:00,
2013-04-11 16:27:00,63.5,43.9,30.06,SW,225,3.5,4.4,49,0.00,,,0.00,,2013-04-11 14:27:00,
2013-04-11 16:32:00,63.9,44.2,30.06,SW,225,2.6,2.6,49,0.00,,,0.00,,2013-04-11 14:32:00,
2013-04-11 16:37:00,63.7,43.0,30.06,SSE,157,2.2,5.3,47,0.00,,,0.00,,2013-04-11 14:37:00,
2013-04-11 16:47:00,64.6,45.0,30.03,WSW,247,1.3,1.3,49,0.00,,,0.00,,2013-04-11 14:47:00,
2013-04-11 16:52:00,64.4,44.2,30.06,SW,225,2.6,3.5,48,0.00,,,0.00,,2013-04-11 14:52:00,
2013-04-11 16:57:00,64.0,43.3,30.06,SW,225,3.5,5.3,47,0.00,,,0.00,,2013-04-11 14:57:00,
2013-04-11 17:02:00,63.7,44.1,30.06,SSW,202,3.1,5.3,49,0.00,,,0.00,,2013-04-11 15:02:00,
2013-04-11 17:12:00,63.1,43.5,30.06,SW,225,5.3,6.2,49,0.00,,,0.00,,2013-04-11 15:12:00,
2013-04-11 17:17:00,62.8,43.2,30.06,South,180,3.1,3.5,49,0.00,,,0.00,,2013-04-11 15:17:00,
2013-04-11 17:22:00,62.6,44.1,30.03,SW,225,4.4,4.4,51,0.00,,,0.00,,2013-04-11 15:22:00,
2013-04-11 17:27:00,62.6,44.1,30.03,SSW,202,3.5,3.5,51,0.00,,,0.00,,2013-04-11 15:27:00,
2013-04-11 17:32:00,63.0,44.4,30.03,WSW,247,2.6,4.4,51,0.00,,,0.00,,2013-04-11 15:32:00,
2013-04-11 17:37:00,62.8,43.7,30.03,South,180,4.4,8.0,50,0.00,,,0.00,,2013-04-11 15:37:00,
2013-04-11 17:42:00,62.8,43.7,30.03,SSW,202,4.9,6.2,50,0.00,,,0.00,,2013-04-11 15:42:00,
2013-04-11 17:47:00,62.6,43.5,30.06,South,180,3.5,4.0,50,0.00,,,0.00,,2013-04-11 15:47:00,
2013-04-11 17:52:00,63.0,44.4,30.06,WSW,247,3.1,5.8,51,0.00,,,0.00,,2013-04-11 15:52:00,
2013-04-11 17:57:00,63.1,44.6,30.06,WSW,247,2.6,2.6,51,0.00,,,0.00,,2013-04-11 15:57:00,
2013-04-11 18:02:00,63.1,44.1,30.06,WSW,247,4.4,7.6,50,0.00,,,0.00,,2013-04-11 16:02:00,
2013-04-11 18:07:00,62.6,43.5,30.06,SW,225,4.4,6.2,50,0.00,,,0.00,,2013-04-11 16:07:00,
2013-04-11 18:17:00,62.4,43.9,30.06,WSW,247,1.3,2.6,51,0.00,,,0.00,,2013-04-11 16:17:00,
2013-04-11 18:22:00,62.1,43.7,30.06,SSW,202,4.0,6.2,51,0.00,,,0.00,,2013-04-11 16:22:00,
2013-04-11 18:27:00,62.1,43.7,30.03,SW,225,3.5,3.5,51,0.00,,,0.00,,2013-04-11 16:27:00,
2013-04-11 18:32:00,61.9,43.5,30.06,SW,225,3.5,4.9,51,0.00,,,0.00,,2013-04-11 16:32:00,
2013-04-11 18:42:00,61.0,43.2,30.06,SSW,202,2.6,4.4,52,0.00,,,0.00,,2013-04-11 16:42:00,
2013-04-11 18:47:00,60.4,43.2,30.06,WSW,247,4.9,8.5,53,0.00,,,0.00,,2013-04-11 16:47:00,
2013-04-11 18:57:00,59.7,43.0,30.06,SSW,202,4.4,5.8,54,0.00,,,0.00,,2013-04-11 16:57:00,
2013-04-11 19:02:00,59.2,43.0,30.03,SSW,202,3.5,4.0,55,0.00,,,0.00,,2013-04-11 17:02:00,
2013-04-11 19:12:00,58.6,42.8,30.03,SSW,202,4.0,4.0,56,0.00,,,0.00,,2013-04-11 17:12:00,
2013-04-11 19:17:00,58.5,43.2,30.03,SSW,202,2.2,3.5,57,0.00,,,0.00,,2013-04-11 17:17:00,
2013-04-11 19:22:00,58.1,43.3,30.03,South,180,3.1,8.0,58,0.00,,,0.00,,2013-04-11 17:22:00,
2013-04-11 19:32:00,57.7,43.3,30.06,WSW,247,3.5,3.5,59,0.00,,,0.00,,2013-04-11 17:32:00,
2013-04-11 19:37:00,57.4,43.5,30.06,SSW,202,4.4,5.8,60,0.00,,,0.00,,2013-04-11 17:37:00,
2013-04-11 19:42:00,57.2,43.7,30.06,SW,225,4.9,4.9,61,0.00,,,0.00,,2013-04-11 17:42:00,
2013-04-11 19:47:00,57.0,43.5,30.06,South,180,3.1,4.0,61,0.00,,,0.00,,2013-04-11 17:47:00,
2013-04-11 19:52:00,56.8,43.9,30.06,SW,225,4.0,4.4,62,0.00,,,0.00,,2013-04-11 17:52:00,
2013-04-11 20:02:00,56.7,44.1,30.09,SW,225,0.8,1.3,63,0.00,,,0.00,,2013-04-11 18:02:00,
2013-04-11 20:07:00,56.5,43.9,30.09,South,180,1.7,3.5,63,0.00,,,0.00,,2013-04-11 18:07:00,
2013-04-11 20:12:00,56.5,44.4,30.06,South,180,2.2,4.9,64,0.00,,,0.00,,2013-04-11 18:12:00,
2013-04-11 20:17:00,56.3,44.2,30.06,WSW,247,0.0,0.0,64,0.00,,,0.00,,2013-04-11 18:17:00,
2013-04-11 20:22:00,56.3,44.2,30.06,WSW,247,1.3,1.7,64,0.00,,,0.00,,2013-04-11 18:22:00,
2013-04-11 20:27:00,56.1,44.4,30.06,SSE,157,2.6,2.6,65,0.00,,,0.00,,2013-04-11 18:27:00,
2013-04-11 20:37:00,55.9,43.0,30.06,SSE,157,3.1,4.0,62,0.00,,,0.00,,2013-04-11 18:37:00,
2013-04-11 20:42:00,55.9,42.6,30.06,SSE,157,2.6,3.5,61,0.00,,,0.00,,2013-04-11 18:42:00,
2013-04-11 20:47:00,56.1,41.4,30.06,SSE,157,3.1,3.5,58,0.00,,,0.00,,2013-04-11 18:47:00,
2013-04-11 20:52:00,56.3,40.6,30.06,SSW,202,3.5,3.5,56,0.00,,,0.00,,2013-04-11 18:52:00,
2013-04-11 21:02:00,56.3,40.6,30.03,SE,135,2.2,4.0,56,0.00,,,0.00,,2013-04-11 19:02:00,
2013-04-11 21:12:00,56.1,41.4,30.06,ESE,112,2.2,2.6,58,0.00,,,0.00,,2013-04-11 19:12:00,
2013-04-11 21:22:00,56.1,41.0,30.06,SSW,202,1.3,2.2,57,0.00,,,0.00,,2013-04-11 19:22:00,
2013-04-11 21:32:00,56.1,40.5,30.06,SSW,202,1.7,1.7,56,0.00,,,0.00,,2013-04-11 19:32:00,
2013-04-11 21:37:00,56.1,41.0,30.06,South,180,0.8,2.6,57,0.00,,,0.00,,2013-04-11 19:37:00,
2013-04-11 21:42:00,56.1,41.0,30.06,SW,225,0.4,0.8,57,0.00,,,0.00,,2013-04-11 19:42:00,
2013-04-11 21:47:00,55.9,40.8,30.06,SE,135,4.0,4.0,57,0.00,,,0.00,,2013-04-11 19:47:00,
2013-04-11 21:57:00,55.8,40.6,30.06,SSE,157,3.5,3.5,57,0.00,,,0.00,,2013-04-11 19:57:00,
2013-04-11 22:02:00,55.9,40.3,30.06,SSE,157,4.4,5.3,56,0.00,,,0.00,,2013-04-11 20:02:00,
2013-04-11 22:07:00,55.9,40.3,30.06,SSE,157,4.0,5.3,56,0.00,,,0.00,,2013-04-11 20:07:00,
2013-04-11 22:12:00,55.9,39.9,30.06,SE,135,3.5,4.0,55,0.00,,,0.00,,2013-04-11 20:12:00,
2013-04-11 22:22:00,55.9,39.9,30.06,SE,135,3.1,7.6,55,0.00,,,0.00,,2013-04-11 20:22:00,
2013-04-11 22:27:00,55.9,40.3,30.06,South,180,3.1,8.0,56,0.00,,,0.00,,2013-04-11 20:27:00,
2013-04-11 22:32:00,55.8,40.6,30.09,SSE,157,3.1,4.4,57,0.00,,,0.00,,2013-04-11 20:32:00,
2013-04-11 22:37:00,55.8,40.3,30.09,SSE,157,3.5,3.5,56,0.00,,,0.00,,2013-04-11 20:37:00,
2013-04-11 22:42:00,55.9,39.4,30.06,SSE,157,4.0,4.4,54,0.00,,,0.00,,2013-04-11 20:42:00,
2013-04-11 22:52:00,55.9,39.0,30.06,South,180,3.5,6.2,53,0.00,,,0.00,,2013-04-11 20:52:00,
2013-04-11 23:02:00,55.9,39.0,30.06,South,180,3.5,8.0,53,0.00,,,0.00,,2013-04-11 21:02:00,
2013-04-11 23:12:00,55.9,39.9,30.03,SSW,202,4.4,6.2,55,0.00,,,0.00,,2013-04-11 21:12:00,
2013-04-11 23:17:00,56.1,40.5,30.03,SW,225,3.5,4.4,56,0.00,,,0.00,,2013-04-11 21:17:00,
2013-04-11 23:22:00,56.1,40.1,30.03,South,180,5.3,8.9,55,0.00,,,0.00,,2013-04-11 21:22:00,
2013-04-11 23:32:00,56.1,41.0,30.06,South,180,3.1,6.2,57,0.00,,,0.00,,2013-04-11 21:32:00,
2013-04-11 23:37:00,56.1,41.0,30.06,SSW,202,2.6,4.4,57,0.00,,,0.00,,2013-04-11 21:37:00,